This is the latest recevied weather packets stored in our database for station/object NEWPRT. If no packets are shown the sender has not sent any weather packets the latest 10 day(s).
| Time | Temp. | Humidity | Pressure | Rain* | Wind** | Luminosity | Snow |
|---|---|---|---|---|---|---|---|
| 1777919912 | - | 79% | 1015.9 hPa | 0 mm | - | - | - |
| 1777919589 | - | 79% | 1015.9 hPa | 0 mm | - | - | - |
| 1777919265 | - | 79% | 1015.4 hPa | 0 mm | - | - | - |
| 1777918942 | - | 81% | 1015.8 hPa | 0 mm | - | - | - |
| 1777918619 | - | 71% | 1015.7 hPa | 0 mm | - | - | - |
| 1777918296 | - | 73% | 1015.6 hPa | 0 mm | - | - | - |
| 1777917975 | - | 75% | 1015.4 hPa | 0 mm | - | - | - |
| 1777917650 | - | 81% | 1015.1 hPa | 0 mm | - | - | - |
| 1777917327 | - | 81% | 1015.1 hPa | 0 mm | - | - | - |
| 1777917004 | - | 83% | 1015.3 hPa | 0 mm | - | - | - |
| 1777916682 | - | 83% | 1015.2 hPa | 0 mm | - | - | - |
| 1777916358 | - | 82% | 1014.8 hPa | 0 mm | - | - | - |
| 1777916035 | - | 82% | 1014.9 hPa | 0 mm | - | - | - |
| 1777915712 | - | 81% | 1014.9 hPa | 0 mm | - | - | - |
| 1777915389 | - | 82% | 1014.8 hPa | 0 mm | - | - | - |
| 1777915066 | - | 79% | 1014.9 hPa | 0 mm | - | - | - |
| 1777914743 | - | 82% | 1014.9 hPa | 0 mm | - | - | - |
| 1777914420 | - | 83% | 1015.1 hPa | 0 mm | - | - | - |
| 1777914097 | - | 82% | 1014.9 hPa | 0 mm | - | - | - |
| 1777913774 | - | 81% | 1014.9 hPa | 0.25 mm | - | - | - |
| 1777913451 | - | 80% | 1014.8 hPa | 0.25 mm | - | - | - |
| 1777913128 | - | 82% | 1014.9 hPa | 0.25 mm | - | - | - |
| 1777912805 | - | 73% | 1015.1 hPa | 0.25 mm | - | - | - |
| 1777912482 | - | 82% | 1015 hPa | 0.25 mm | - | - | - |
| 1777912159 | - | 81% | 1014.6 hPa | 0.25 mm | - | - | - |
* Rain latest hour (hover to see other rain measurements)
** Current wind speed in m/s (hover to see current wind gust speed)